Regional Weather Roundup
Issued by NWS Cleveland, OH

Home | Current Version | Previous Version | Graphics & Text | Print | Product List | Glossary On
Versions: 1 2 3 4 5 6 7 8 9 10 11 12 13 14 15 16 17 18 19 20 21 22 23 24 25 26 27 28 29 30 31 32 33 34 35 36 37 38 39 40 41 42 43 44 45 46 47 48 49 50
000
ASUS41 KCLE 021600
RWRCLE
OHIO REGIONAL WEATHER ROUNDUP
NATIONAL WEATHER SERVICE WILMINGTON, OH
1200 PM EDT THU OCT 02 2014

NOTE: "FAIR" INDICATES FEW OR NO CLOUDS BELOW 12,000 FEET WITH NO
SIGNIFICANT WEATHER AND/OR OBSTRUCTIONS TO VISIBILITY.

OHZ001>008-015>018-024>027-034-035-043-044-021700-
   NORTHWEST OHIO

CITY           SKY/WX    TMP DP  RH WIND       PRES   REMARKS
DEFIANCE       PTSUNNY   73  57  57 S9        29.96F
FINDLAY        MOSUNNY   76  60  57 S14       29.97F
TOLEDO EXPRESS CLOUDY    72  57  59 E8        29.97F
TOLEDO METCALF CLOUDY    72  58  61 SE10      29.98F
LIMA           MOSUNNY   78  57  48 S12       29.97F
$$

OHZ009>014-019>023-028>033-038-089-021700-
   NORTHEAST OHIO

CITY           SKY/WX    TMP DP  RH WIND       PRES   REMARKS
CLE-HOPKINS    MOSUNNY   69  55  60 S8        30.05F
CLE-LAKEFRONT  PTSUNNY   67  54  63 SE12      30.03F
CUY CO. ARPT   PTSUNNY   61  59  94 SE14      30.06F
LORAIN-ELYRIA  MOSUNNY   70  55  59 S12       30.04F
ASHTABULA      PTSUNNY   63  58  83 S9        30.08F HAZE
AKRON-CANTON   MOSUNNY   67  53  61 S7        30.07F HAZE
WOOSTER        NOT AVBL
MANSFIELD      MOSUNNY   72  58  61 S13       30.05F
YOUNGSTOWN     MOSUNNY   62  57  83 SE7       30.09F
$$

OHZ042-051>053-060>062-070>072-077>081-021700-
  SOUTHWEST OHIO

CITY           SKY/WX    TMP DP  RH WIND       PRES   REMARKS
CINC-COVINGTON PTSUNNY   80  59  48 S9        30.02F
CINC-LUNKEN    MOSUNNY   79  62  56 S10       30.01F
HAMILTON       MOSUNNY   77  61  57 S3        30.01F
DAYTON         NOT AVBL
WRIGHT-PAT AFB NOT AVBL
DAYTON GENERAL MOSUNNY   76  61  59 S10       30.00F
WILMINGTON     MOSUNNY   80  58  46 S13       30.02F
$$

OHZ036-037-039>041-045>050-054>059-063>069-073>076-082>088-021700-
  CENTRAL AND SOUTHEAST OHIO

CITY           SKY/WX    TMP DP  RH WIND       PRES   REMARKS
COLUMBUS       MOSUNNY   73  57  57 SE8       30.03F
OSU AIRPORT    SUNNY     72  58  61 SE8       30.03F
BOLTON FIELD   SUNNY     72  59  64 S7        30.04F
RICKENBACK AFB NOT AVBL
NEWARK         SUNNY     72  58  61 S6        30.05F
MARION         MOSUNNY   75  59  57 S12       30.02F
LANCASTER      MOSUNNY   73  60  63 SE8       30.05F
ZANESVILLE     SUNNY     70  57  63 S7        30.07F
NEW PHILLY     SUNNY     67  57  70 SE6       30.09F
$$



USA.gov is the U.S. government's official web portal to all federal, state and local government web resources and services.